Volver al catálogo

SL-14 R/B

ActivoLEO
NORAD 22283·ROCKET BODY·🇷🇺 Russia

Lanzado Dec 22, 1992 desde Plesetsk Cosmodrome

Loading…

Próximos Pases (próximas 24 horas)

TLE

ActualizadoSource: Space-Track

Época: Sep 14, 2026, 22:29 UTC

1 22283U 92092B   26257.93742748 -.00000007  00000-0  70566-4 0  9991
2 22283  73.6252 126.6155 0058925 353.2825  29.1575 12.48301057537079

Sigue SL-14 R/B en tiempo real con AllMySat

Download on the App Store